"Platform","White Shoal Light Station"
"NDBC ID","WSLM4"
"Latitude (deg)",45.84222
"Longitude (deg)",-85.13528
"Water Depth (m)",8
"Sensor Device","Campbell Scientific CR23X Logger"
"Sensor Type","Internal battery voltage measurement"
"Sensor Units","volts"
"Measurement","30 minute average of data samples taken at 2 second interval"
"Time means","Time at end of 30 minute averaging period (UTC time zone)"

"Note:","This data was collected for research purposes."
"Note:","Minimal quality checking has been performed so data may contain known or unknown errors."
"Note:","Data provided by NOAA. Please credit NOAA."
"Note:","For more info see www.glerl.noaa.gov/res/recon"

"Time (UTC)","Battery"
"YYYY/MM/DD HH:MM","volts"
2015/09/17 19:30, 13.56
2015/09/17 20:00, 13.44
2015/09/17 20:30, 13.36
2015/09/17 21:00, 13.37
2015/09/17 21:30, 13.38
2015/09/17 22:00, 13.21
2015/09/17 22:30, 12.74
2015/09/17 23:00, 12.37
2015/09/17 23:30, 12.32
2015/09/18 00:00, 12.30
2015/09/18 00:30, 12.27
2015/09/18 01:00, 12.24
2015/09/18 01:30, 12.18
2015/09/18 02:00, 12.04
2015/09/18 02:30, 12.02
2015/09/18 03:00, 12.06
2015/09/18 03:30, 11.99
2015/09/18 04:00, 11.97
2015/09/18 04:30, 12.06
2015/09/18 05:00, 12.04
2015/09/18 05:30, 12.03
2015/09/18 06:00, 12.01
2015/09/18 06:30, 12.01
2015/09/18 07:00, 12.00
2015/09/18 07:30, 11.97
2015/09/18 08:00, 11.96
2015/09/18 08:30, 11.85
2015/09/18 09:00, 11.80
2015/09/18 09:30, 11.91
2015/09/18 10:00, 11.86
2015/09/18 10:30, 11.83
2015/09/18 11:00, 11.92
2015/09/18 11:30, 11.91
2015/09/18 12:00, 11.91
2015/09/18 12:30, 11.92
2015/09/18 13:00, 11.93
2015/09/18 13:30, 11.96
2015/09/18 14:00, 11.94
2015/09/18 14:30, 12.05
2015/09/18 15:00, 12.15
2015/09/18 15:30, 12.25
2015/09/18 16:00, 12.35
2015/09/18 16:30, 12.31
2015/09/18 17:00, 12.23
2015/09/18 17:30, 12.37
2015/09/18 18:00, 12.97
2015/09/18 18:30, 13.33
2015/09/18 19:00, 13.71
2015/09/18 19:30, 13.66
2015/09/18 20:00, 13.49
2015/09/18 20:30, 13.41
2015/09/18 21:00, 13.37
2015/09/18 21:30, 13.42
2015/09/18 22:00, 13.39
2015/09/18 22:30, 13.47
2015/09/18 23:00, 12.54
2015/09/18 23:30, 12.37
2015/09/19 00:00, 12.31
2015/09/19 00:30, 12.29
2015/09/19 01:00, 12.27
2015/09/19 01:30, 12.28
2015/09/19 02:00, 12.23
2015/09/19 02:30, 12.21
2015/09/19 03:00, 12.23
2015/09/19 03:30, 12.21
2015/09/19 04:00, 12.17
2015/09/19 04:30, 12.11
2015/09/19 05:00, 12.08
2015/09/19 05:30, 12.06
2015/09/19 06:00, 12.04
2015/09/19 06:30, 12.04
2015/09/19 07:00, 12.02
2015/09/19 07:30, 11.87
2015/09/19 08:00, 11.85
2015/09/19 08:30, 11.84
2015/09/19 09:00, 11.82
2015/09/19 09:30, 11.81
2015/09/19 10:00, 11.83
2015/09/19 10:30, 11.79
2015/09/19 11:00, 11.78
2015/09/19 11:30, 11.77
2015/09/19 12:00, 11.75
2015/09/19 12:30, 11.83
2015/09/19 13:00, 11.91
2015/09/19 13:30, 11.96
2015/09/19 14:00, 12.07
2015/09/19 14:30, 12.47
2015/09/19 15:00, 12.81
2015/09/19 15:30, 13.14
2015/09/19 16:00, 13.53
2015/09/19 16:30, 13.53
2015/09/19 17:00, 13.19
2015/09/19 17:30, 13.23
2015/09/19 18:00, 13.57
2015/09/19 18:30, 13.55
2015/09/19 19:00, 13.46
2015/09/19 19:30, 13.69
2015/09/19 20:00, 13.46
2015/09/19 20:30, 13.64
2015/09/19 21:00, 13.55
2015/09/19 21:30, 13.56
2015/09/19 22:00, 13.59
2015/09/19 22:30, 13.66
2015/09/19 23:00, 13.61
2015/09/19 23:30, 12.53
2015/09/20 00:00, 12.32
2015/09/20 00:30, 12.29
2015/09/20 01:00, 12.29
2015/09/20 01:30, 12.30
2015/09/20 02:00, 12.26
2015/09/20 02:30, 12.23
2015/09/20 03:00, 12.19
2015/09/20 03:30, 12.19
2015/09/20 04:00, 12.17
2015/09/20 04:30, 12.17
2015/09/20 05:00, 12.15
2015/09/20 05:30, 12.09
2015/09/20 06:00, 12.08
2015/09/20 06:30, 12.05
2015/09/20 07:00, 12.05
2015/09/20 07:30, 12.04
2015/09/20 08:00, 12.02
2015/09/20 08:30, 12.02
2015/09/20 09:00, 12.01
2015/09/20 09:30, 12.01
2015/09/20 10:00, 11.99
2015/09/20 10:30, 11.97
2015/09/20 11:00, 11.95
2015/09/20 11:30, 11.93
2015/09/20 12:00, 11.93
2015/09/20 12:30, 11.99
2015/09/20 13:00, 12.11
2015/09/20 13:30, 12.39
2015/09/20 14:00, 12.72
2015/09/20 14:30, 12.90
2015/09/20 15:00, 13.17
2015/09/20 15:30, 13.59
2015/09/20 16:00, 13.52
2015/09/20 16:30, 13.62
2015/09/20 17:00, 13.57
2015/09/20 17:30, 13.67
2015/09/20 18:00, 13.75
2015/09/20 18:30, 13.80
2015/09/20 19:00, 13.79
2015/09/20 19:30, 13.69
2015/09/20 20:00, 13.61
2015/09/20 20:30, 13.52
2015/09/20 21:00, 13.49
2015/09/20 21:30, 13.52
2015/09/20 22:00, 13.55
2015/09/20 22:30, 13.52
2015/09/20 23:00, 13.35
2015/09/20 23:30, 12.45
2015/09/21 00:00, 12.35
2015/09/21 00:30, 12.28
2015/09/21 01:00, 12.25
2015/09/21 01:30, 12.22
2015/09/21 02:00, 12.18
2015/09/21 02:30, 12.15
2015/09/21 03:00, 12.12
2015/09/21 03:30, 12.11
2015/09/21 04:00, 12.08
2015/09/21 04:30, 12.05
2015/09/21 05:00, 12.03
2015/09/21 05:30, 12.00
2015/09/21 06:00, 11.99
2015/09/21 06:30, 11.97
2015/09/21 07:00, 11.96
2015/09/21 07:30, 11.94
2015/09/21 08:00, 11.93
2015/09/21 08:30, 11.93
2015/09/21 09:00, 11.91
2015/09/21 09:30, 11.90
2015/09/21 10:00, 11.89
2015/09/21 10:30, 11.88
2015/09/21 11:00, 11.88
2015/09/21 11:30, 11.91
2015/09/21 12:00, 11.91
2015/09/21 12:30, 11.97
2015/09/21 13:00, 12.04
2015/09/21 13:30, 12.30
2015/09/21 14:00, 12.63
2015/09/21 14:30, 12.81
2015/09/21 15:00, 13.01
2015/09/21 15:30, 13.34
2015/09/21 16:00, 13.46
2015/09/21 16:30, 13.36
2015/09/21 17:00, 13.38
2015/09/21 17:30, 13.51
2015/09/21 18:00, 13.64
2015/09/21 18:30, 13.70
2015/09/21 19:00, 13.68
2015/09/21 19:30, 13.56
2015/09/21 20:00, 13.43
2015/09/21 20:30, 13.36
2015/09/21 21:00, 13.34
2015/09/21 21:30, 13.38
2015/09/21 22:00, 13.43
2015/09/21 22:30, 13.50
2015/09/21 23:00, 13.47
2015/09/21 23:30, 12.48
2015/09/22 00:00, 12.32
2015/09/22 00:30, 12.29
2015/09/22 01:00, 12.26
2015/09/22 01:30, 12.23
2015/09/22 02:00, 12.21
2015/09/22 02:30, 12.18
2015/09/22 03:00, 12.15
2015/09/22 03:30, 12.13
2015/09/22 04:00, 12.11
2015/09/22 04:30, 12.08
2015/09/22 05:00, 12.05
2015/09/22 05:30, 12.04
2015/09/22 06:00, 12.01
2015/09/22 06:30, 11.99
2015/09/22 07:00, 12.00
2015/09/22 07:30, 11.97
2015/09/22 08:00, 11.96
2015/09/22 08:30, 11.94
2015/09/22 09:00, 11.93
2015/09/22 09:30, 11.92
2015/09/22 10:00, 11.91
2015/09/22 10:30, 11.91
2015/09/22 11:00, 11.90
2015/09/22 11:30, 11.90
2015/09/22 12:00, 11.91
2015/09/22 12:30, 11.94
2015/09/22 13:00, 11.98
2015/09/22 13:30, 12.24
2015/09/22 14:00, 12.58
2015/09/22 14:30, 12.80
2015/09/22 15:00, 13.03
2015/09/22 15:30, 13.38
2015/09/22 16:00, 13.57
2015/09/22 16:30, 13.49
2015/09/22 17:00, 13.48
2015/09/22 17:30, 13.58
2015/09/22 18:00, 13.66
2015/09/22 18:30, 13.73
2015/09/22 19:00, 13.70
2015/09/22 19:30, 13.56
2015/09/22 20:00, 13.45
2015/09/22 20:30, 13.40
2015/09/22 21:00, 13.40
2015/09/22 21:30, 13.30
2015/09/22 22:00, 13.05
2015/09/22 22:30, 13.31
2015/09/22 23:00, 12.37
2015/09/22 23:30, 12.28
2015/09/23 00:00, 12.25
2015/09/23 00:30, 12.23
2015/09/23 01:00, 12.21
2015/09/23 01:30, 12.21
2015/09/23 02:00, 12.15
2015/09/23 02:30, 12.12
2015/09/23 03:00, 12.10
2015/09/23 03:30, 12.08
2015/09/23 04:00, 12.05
2015/09/23 04:30, 12.03
2015/09/23 05:00, 12.03
2015/09/23 05:30, 12.01
2015/09/23 06:00, 11.99
2015/09/23 06:30, 11.97
2015/09/23 07:00, 11.96
2015/09/23 07:30, 11.95
2015/09/23 08:00, 11.95
2015/09/23 08:30, 11.96
2015/09/23 09:00, 11.98
2015/09/23 09:30, 11.99
2015/09/23 10:00, 12.01
2015/09/23 10:30, 12.00
2015/09/23 11:00, 11.98
2015/09/23 11:30, 11.97
2015/09/23 12:00, 11.96
2015/09/23 12:30, 11.97
2015/09/23 13:00, 12.00
2015/09/23 13:30, 12.16
2015/09/23 14:00, 12.48
2015/09/23 14:30, 12.47
2015/09/23 15:00, 12.53
2015/09/23 15:30, 12.96
2015/09/23 16:00, 13.31
2015/09/23 16:30, 13.56
2015/09/23 17:00, 13.52
2015/09/23 17:30, 13.60
2015/09/23 18:00, 13.66
2015/09/23 18:30, 13.71
2015/09/23 19:00, 13.69
2015/09/23 19:30, 13.62
2015/09/23 20:00, 13.58
2015/09/23 20:30, 13.50
2015/09/23 21:00, 13.46
2015/09/23 21:30, 13.47
2015/09/23 22:00, 13.47
2015/09/23 22:30, 13.54
2015/09/23 23:00, 13.32
2015/09/23 23:30, 12.42
2015/09/24 00:00, 12.32
2015/09/24 00:30, 12.30
2015/09/24 01:00, 12.27
2015/09/24 01:30, 12.24
2015/09/24 02:00, 12.21
2015/09/24 02:30, 12.18
2015/09/24 03:00, 12.16
2015/09/24 03:30, 12.13
2015/09/24 04:00, 12.11
2015/09/24 04:30, 12.08
2015/09/24 05:00, 12.06
2015/09/24 05:30, 12.04
2015/09/24 06:00, 12.03
2015/09/24 06:30, 12.01
2015/09/24 07:00, 12.00
2015/09/24 07:30, 11.99
2015/09/24 08:00, 11.98
2015/09/24 08:30, 11.97
2015/09/24 09:00, 11.97
2015/09/24 09:30, 11.96
2015/09/24 10:00, 11.95
2015/09/24 10:30, 11.93
2015/09/24 11:00, 11.92
2015/09/24 11:30, 11.90
2015/09/24 12:00, 11.90
2015/09/24 12:30, 11.91
2015/09/24 13:00, 11.93
2015/09/24 13:30, 11.96
2015/09/24 14:00, 12.07
2015/09/24 14:30, 12.29
2015/09/24 15:00, 12.45
2015/09/24 15:30, 12.50
2015/09/24 16:00, 12.48
2015/09/24 16:30, 12.51
2015/09/24 17:00, 12.76
2015/09/24 17:30, 12.87
2015/09/24 18:00, 13.50
2015/09/24 18:30, 13.45
2015/09/24 19:00, 12.86
2015/09/24 19:30, 13.10
2015/09/24 20:00, 12.91
2015/09/24 20:30, 12.69
2015/09/24 21:00, 12.64
2015/09/24 21:30, 12.49
2015/09/24 22:00, 12.41
2015/09/24 22:30, 12.32
2015/09/24 23:00, 12.26
2015/09/24 23:30, 12.23
2015/09/25 00:00, 12.21
2015/09/25 00:30, 12.19
2015/09/25 01:00, 12.17
2015/09/25 01:30, 12.14
2015/09/25 02:00, 12.12
2015/09/25 02:30, 12.09
2015/09/25 03:00, 12.07
2015/09/25 03:30, 12.05
2015/09/25 04:00, 12.03
2015/09/25 04:30, 12.02
2015/09/25 05:00, 12.00
2015/09/25 05:30, 11.98
2015/09/25 06:00, 11.96
2015/09/25 06:30, 11.95
2015/09/25 07:00, 11.94
2015/09/25 07:30, 11.92
2015/09/25 08:00, 11.91
2015/09/25 08:30, 11.90
2015/09/25 09:00, 11.89
2015/09/25 09:30, 11.88
2015/09/25 10:00, 11.88
2015/09/25 10:30, 11.87
2015/09/25 11:00, 11.87
2015/09/25 11:30, 11.87
2015/09/25 12:00, 11.87
2015/09/25 12:30, 11.91
2015/09/25 13:00, 12.04
2015/09/25 13:30, 12.34
2015/09/25 14:00, 12.63
2015/09/25 14:30, 12.62
2015/09/25 15:00, 12.83
2015/09/25 15:30, 13.27
2015/09/25 16:00, 13.32
2015/09/25 16:30, 13.59
2015/09/25 17:00, 13.53
2015/09/25 17:30, 13.59
2015/09/25 18:00, 13.67
2015/09/25 18:30, 13.72
2015/09/25 19:00, 13.69
2015/09/25 19:30, 13.57
2015/09/25 20:00, 13.50
2015/09/25 20:30, 13.47
2015/09/25 21:00, 13.47
2015/09/25 21:30, 13.52
2015/09/25 22:00, 13.58
2015/09/25 22:30, 13.67
2015/09/25 23:00, 12.99
2015/09/25 23:30, 12.37
2015/09/26 00:00, 12.30
2015/09/26 00:30, 12.28
2015/09/26 01:00, 12.25
2015/09/26 01:30, 12.23
2015/09/26 02:00, 12.20
2015/09/26 02:30, 12.18
2015/09/26 03:00, 12.16
2015/09/26 03:30, 12.14
2015/09/26 04:00, 12.11
2015/09/26 04:30, 12.09
2015/09/26 05:00, 12.07
2015/09/26 05:30, 12.05
2015/09/26 06:00, 12.04
2015/09/26 06:30, 12.02
2015/09/26 07:00, 12.01
2015/09/26 07:30, 11.99
2015/09/26 08:00, 11.98
2015/09/26 08:30, 11.97
2015/09/26 09:00, 11.97
2015/09/26 09:30, 11.96
2015/09/26 10:00, 11.95
2015/09/26 10:30, 11.94
2015/09/26 11:00, 11.93
2015/09/26 11:30, 11.90
2015/09/26 12:00, 11.90
2015/09/26 12:30, 11.93
2015/09/26 13:00, 11.99
2015/09/26 13:30, 12.10
2015/09/26 14:00, 12.31
2015/09/26 14:30, 12.65
2015/09/26 15:00, 12.93
2015/09/26 15:30, 13.29
2015/09/26 16:00, 13.55
2015/09/26 16:30, 13.47
2015/09/26 17:00, 13.43
2015/09/26 17:30, 13.47
2015/09/26 18:00, 13.55
2015/09/26 18:30, 13.60
2015/09/26 19:00, 13.58
2015/09/26 19:30, 13.48
2015/09/26 20:00, 13.42
2015/09/26 20:30, 13.41
2015/09/26 21:00, 13.43
2015/09/26 21:30, 13.49
2015/09/26 22:00, 13.55
2015/09/26 22:30, 13.64
2015/09/26 23:00, 13.20
2015/09/26 23:30, 12.40
2015/09/27 00:00, 12.31
2015/09/27 00:30, 12.29
2015/09/27 01:00, 12.27
2015/09/27 01:30, 12.24
2015/09/27 02:00, 12.21
2015/09/27 02:30, 12.19
2015/09/27 03:00, 12.16
2015/09/27 03:30, 12.14
2015/09/27 04:00, 12.11
2015/09/27 04:30, 12.09
2015/09/27 05:00, 12.07
2015/09/27 05:30, 12.05
2015/09/27 06:00, 12.04
2015/09/27 06:30, 12.03
2015/09/27 07:00, 12.01
2015/09/27 07:30, 12.00
2015/09/27 08:00, 11.99
2015/09/27 08:30, 11.98
2015/09/27 09:00, 11.96
2015/09/27 09:30, 11.95
2015/09/27 10:00, 11.94
2015/09/27 10:30, 11.93
2015/09/27 11:00, 11.92
2015/09/27 11:30, 11.91
2015/09/27 12:00, 11.90
2015/09/27 12:30, 11.92
2015/09/27 13:00, 12.01
2015/09/27 13:30, 12.30
2015/09/27 14:00, 12.60
2015/09/27 14:30, 12.73
2015/09/27 15:00, 12.64
2015/09/27 15:30, 12.58
2015/09/27 16:00, 12.70
2015/09/27 16:30, 12.72
2015/09/27 17:00, 12.91
2015/09/27 17:30, 12.94
2015/09/27 18:00, 13.46
2015/09/27 18:30, 13.71
2015/09/27 19:00, 13.45
2015/09/27 19:30, 13.21
2015/09/27 20:00, 13.18
2015/09/27 20:30, 13.70
2015/09/27 21:00, 12.63
2015/09/27 21:30, 12.38
2015/09/27 22:00, 12.32
2015/09/27 22:30, 12.28
2015/09/27 23:00, 12.25
2015/09/27 23:30, 12.21
2015/09/28 00:00, 12.19
2015/09/28 00:30, 12.16
2015/09/28 01:00, 12.14
2015/09/28 01:30, 12.11
2015/09/28 02:00, 12.09
2015/09/28 02:30, 12.06
2015/09/28 03:00, 12.05
2015/09/28 03:30, 12.04
2015/09/28 04:00, 12.01
2015/09/28 04:30, 12.00
2015/09/28 05:00, 11.98
2015/09/28 05:30, 11.97
2015/09/28 06:00, 11.96
2015/09/28 06:30, 11.94
2015/09/28 07:00, 11.93
2015/09/28 07:30, 11.92
2015/09/28 08:00, 11.91
2015/09/28 08:30, 11.90
2015/09/28 09:00, 11.89
2015/09/28 09:30, 11.89
2015/09/28 10:00, 11.89
2015/09/28 10:30, 11.88
2015/09/28 11:00, 11.88
2015/09/28 11:30, 11.87
2015/09/28 12:00, 11.88
2015/09/28 12:30, 11.90
2015/09/28 13:00, 11.97
2015/09/28 13:30, 12.22
2015/09/28 14:00, 12.57
2015/09/28 14:30, 12.71
2015/09/28 15:00, 12.87
2015/09/28 15:30, 13.17
2015/09/28 16:00, 13.49
2015/09/28 16:30, 13.39
2015/09/28 17:00, 13.50
2015/09/28 17:30, 13.46
2015/09/28 18:00, 13.50
2015/09/28 18:30, 13.54
2015/09/28 19:00, 13.49
2015/09/28 19:30, 13.39
2015/09/28 20:00, 13.35
2015/09/28 20:30, 13.39
2015/09/28 21:00, 12.79
2015/09/28 21:30, 12.48
2015/09/28 22:00, 12.32
2015/09/28 22:30, 12.18
2015/09/28 23:00, 12.11
2015/09/28 23:30, 12.09
2015/09/29 00:00, 12.06
2015/09/29 00:30, 12.04
2015/09/29 01:00, 12.02
2015/09/29 01:30, 11.99
2015/09/29 02:00, 11.96
2015/09/29 02:30, 11.96
2015/09/29 03:00, 12.06
2015/09/29 03:30, 12.04
2015/09/29 04:00, 12.03
2015/09/29 04:30, 12.01
2015/09/29 05:00, 12.00
2015/09/29 05:30, 11.98
2015/09/29 06:00, 12.01
2015/09/29 06:30, 12.00
2015/09/29 07:00, 11.99
2015/09/29 07:30, 11.98
2015/09/29 08:00, 11.96
2015/09/29 08:30, 11.95
2015/09/29 09:00, 11.94
2015/09/29 09:30, 11.93
2015/09/29 10:00, 11.91
2015/09/29 10:30, 11.89
2015/09/29 11:00, 11.88
2015/09/29 11:30, 11.87
2015/09/29 12:00, 11.86
2015/09/29 12:30, 11.87
2015/09/29 13:00, 11.87
2015/09/29 13:30, 11.89
2015/09/29 14:00, 11.92
2015/09/29 14:30, 11.99
2015/09/29 15:00, 12.20
2015/09/29 15:30, 12.24
2015/09/29 16:00, 12.27
2015/09/29 16:30, 12.28
2015/09/29 17:00, 12.46
2015/09/29 17:30, 12.69
2015/09/29 18:00, 13.22
2015/09/29 18:30, 13.58
2015/09/29 19:00, 13.73
2015/09/29 19:30, 13.64
2015/09/29 20:00, 13.56
2015/09/29 20:30, 13.56
2015/09/29 21:00, 13.58
2015/09/29 21:30, 13.63
2015/09/29 22:00, 13.71
2015/09/29 22:30, 13.80
2015/09/29 23:00, 13.48
2015/09/29 23:30, 12.46
2015/09/30 00:00, 12.31
2015/09/30 00:30, 12.28
2015/09/30 01:00, 12.25
2015/09/30 01:30, 12.24
2015/09/30 02:00, 12.21
2015/09/30 02:30, 12.19
2015/09/30 03:00, 12.16
2015/09/30 03:30, 12.14
2015/09/30 04:00, 12.12
2015/09/30 04:30, 12.10
2015/09/30 05:00, 12.07
2015/09/30 05:30, 12.07
2015/09/30 06:00, 12.08
2015/09/30 06:30, 12.07
2015/09/30 07:00, 12.03
2015/09/30 07:30, 12.01
2015/09/30 08:00, 11.99
2015/09/30 08:30, 11.97
2015/09/30 09:00, 11.97
2015/09/30 09:30, 11.95
2015/09/30 10:00, 11.94
2015/09/30 10:30, 11.92
2015/09/30 11:00, 11.91
2015/09/30 11:30, 11.90
2015/09/30 12:00, 11.88
2015/09/30 12:30, 11.92
2015/09/30 13:00, 12.01
2015/09/30 13:30, 12.38
2015/09/30 14:00, 12.71
2015/09/30 14:30, 12.91
2015/09/30 15:00, 13.35
2015/09/30 15:30, 13.72
2015/09/30 16:00, 13.63
2015/09/30 16:30, 13.58
2015/09/30 17:00, 13.57
2015/09/30 17:30, 13.60
2015/09/30 18:00, 13.71
2015/09/30 18:30, 13.74
2015/09/30 19:00, 13.73
2015/09/30 19:30, 13.60
2015/09/30 20:00, 13.54
2015/09/30 20:30, 13.55
2015/09/30 21:00, 13.57
2015/09/30 21:30, 13.60
2015/09/30 22:00, 13.65
2015/09/30 22:30, 13.74
2015/09/30 23:00, 13.35
2015/09/30 23:30, 12.40
2015/10/01 00:00, 12.30
2015/10/01 00:30, 12.27
2015/10/01 01:00, 12.26
2015/10/01 01:30, 12.23
2015/10/01 02:00, 12.22
2015/10/01 02:30, 12.23
2015/10/01 03:00, 12.21
2015/10/01 03:30, 12.19
2015/10/01 04:00, 12.17
2015/10/01 04:30, 12.14
2015/10/01 05:00, 12.11
2015/10/01 05:30, 12.09
2015/10/01 06:00, 12.07
2015/10/01 06:30, 12.04
2015/10/01 07:00, 12.03
2015/10/01 07:30, 12.00
2015/10/01 08:00, 11.99
2015/10/01 08:30, 11.96
2015/10/01 09:00, 11.95
2015/10/01 09:30, 11.94
2015/10/01 10:00, 11.93
2015/10/01 10:30, 11.92
2015/10/01 11:00, 11.91
2015/10/01 11:30, 11.90
2015/10/01 12:00, 11.88
2015/10/01 12:30, 11.91
2015/10/01 13:00, 12.04
2015/10/01 13:30, 12.40
2015/10/01 14:00, 12.73
2015/10/01 14:30, 12.97
2015/10/01 15:00, 13.46
2015/10/01 15:30, 13.87
2015/10/01 16:00, 13.77
2015/10/01 16:30, 13.74
2015/10/01 17:00, 13.70
2015/10/01 17:30, 13.69
2015/10/01 18:00, 13.78
2015/10/01 18:30, 13.83
2015/10/01 19:00, 13.76
2015/10/01 19:30, 13.66
2015/10/01 20:00, 13.58
2015/10/01 20:30, 13.57
2015/10/01 21:00, 13.59
2015/10/01 21:30, 13.67
2015/10/01 22:00, 13.73
2015/10/01 22:30, 13.83
2015/10/01 23:00, 13.42
2015/10/01 23:30, 12.47
2015/10/02 00:00, 12.38
2015/10/02 00:30, 12.33
2015/10/02 01:00, 12.28
2015/10/02 01:30, 12.26
2015/10/02 02:00, 12.23
2015/10/02 02:30, 12.21
2015/10/02 03:00, 12.20
2015/10/02 03:30, 12.16
2015/10/02 04:00, 12.13
2015/10/02 04:30, 12.12
2015/10/02 05:00, 12.11
2015/10/02 05:30, 12.10
2015/10/02 06:00, 12.11
2015/10/02 06:30, 12.09
2015/10/02 07:00, 12.08
2015/10/02 07:30, 12.06
2015/10/02 08:00, 12.03
2015/10/02 08:30, 12.00
2015/10/02 09:00, 11.96
2015/10/02 09:30, 11.94
2015/10/02 10:00, 11.91
2015/10/02 10:30, 11.89
2015/10/02 11:00, 11.87
2015/10/02 11:30, 11.86
2015/10/02 12:00, 11.85
2015/10/02 12:30, 11.87
2015/10/02 13:00, 11.99
2015/10/02 13:30, 12.38
2015/10/02 14:00, 12.69
2015/10/02 14:30, 12.93
2015/10/02 15:00, 13.41
2015/10/02 15:30, 13.74
2015/10/02 16:00, 13.55
2015/10/02 16:30, 13.71
2015/10/02 17:00, 13.64
2015/10/02 17:30, 13.61
2015/10/02 18:00, 13.70
2015/10/02 18:30, 13.74
2015/10/02 19:00, 13.68
2015/10/02 19:30, 13.60
2015/10/02 20:00, 13.53
2015/10/02 20:30, 13.52
2015/10/02 21:00, 13.54
2015/10/02 21:30, 13.61
2015/10/02 22:00, 13.69
2015/10/02 22:30, 13.79
2015/10/02 23:00, 13.33
2015/10/02 23:30, 12.35
2015/10/03 00:00, 12.27
2015/10/03 00:30, 12.24
2015/10/03 01:00, 12.22
2015/10/03 01:30, 12.20
2015/10/03 02:00, 12.18
2015/10/03 02:30, 12.17
2015/10/03 03:00, 12.14
2015/10/03 03:30, 12.12
2015/10/03 04:00, 12.07
2015/10/03 04:30, 12.05
2015/10/03 05:00, 12.02
2015/10/03 05:30, 12.02
2015/10/03 06:00, 11.99
2015/10/03 06:30, 11.98
2015/10/03 07:00, 11.96
2015/10/03 07:30, 11.96
2015/10/03 08:00, 11.94
2015/10/03 08:30, 11.92
2015/10/03 09:00, 11.91
2015/10/03 09:30, 11.89
2015/10/03 10:00, 11.88
2015/10/03 10:30, 11.86
2015/10/03 11:00, 11.85
2015/10/03 11:30, 11.84
2015/10/03 12:00, 11.83
2015/10/03 12:30, 11.82
2015/10/03 13:00, 11.84
2015/10/03 13:30, 11.86
2015/10/03 14:00, 11.91
2015/10/03 14:30, 11.92
2015/10/03 15:00, 12.01
2015/10/03 15:30, 12.01
2015/10/03 16:00, 11.94
2015/10/03 16:30, 11.92
2015/10/03 17:00, 11.91
2015/10/03 17:30, 11.91
2015/10/03 18:00, 11.89
2015/10/03 18:30, 12.06
2015/10/03 19:00, 12.43
2015/10/03 19:30, 12.37
2015/10/03 20:00, 12.38
2015/10/03 20:30, 12.36
2015/10/03 21:00, 12.30
2015/10/03 21:30, 12.16
2015/10/03 22:00, 12.03
2015/10/03 22:30, 11.90
2015/10/03 23:00, 11.82
2015/10/03 23:30, 11.79
2015/10/04 00:00, 11.79
2015/10/04 00:30, 11.79
2015/10/04 01:00, 11.79
2015/10/04 01:30, 11.79
2015/10/04 02:00, 11.79
2015/10/04 02:30, 11.79
2015/10/04 03:00, 11.79
2015/10/04 03:30, 11.79
2015/10/04 04:00, 11.79
2015/10/04 04:30, 11.78
2015/10/04 05:00, 11.78
2015/10/04 05:30, 11.79
2015/10/04 06:00, 11.81
2015/10/04 06:30, 11.81
2015/10/04 07:00, 11.79
2015/10/04 07:30, 11.79
2015/10/04 08:00, 11.79
2015/10/04 08:30, 11.79
2015/10/04 09:00, 11.79
2015/10/04 09:30, 11.80
2015/10/04 10:00, 11.81
2015/10/04 10:30, 11.79
2015/10/04 11:00, 11.79
2015/10/04 11:30, 11.80
2015/10/04 12:00, 11.78
2015/10/04 12:30, 11.78
2015/10/04 13:00, 11.78
2015/10/04 13:30, 11.81
2015/10/04 14:00, 11.85
2015/10/04 14:30, 11.89
2015/10/04 15:00, 12.02
2015/10/04 15:30, 12.06
2015/10/04 16:00, 12.06
2015/10/04 16:30, 12.10
2015/10/04 17:00, 12.27
2015/10/04 17:30, 12.28
2015/10/04 18:00, 12.31
2015/10/04 18:30, 12.40
2015/10/04 19:00, 12.21
2015/10/04 19:30, 12.12
2015/10/04 20:00, 12.09
2015/10/04 20:30, 12.05
2015/10/04 21:00, 11.96
2015/10/04 21:30, 11.90
2015/10/04 22:00, 11.87
2015/10/04 22:30, 11.83
2015/10/04 23:00, 11.81
2015/10/04 23:30, 11.80
2015/10/05 00:00, 11.79
2015/10/05 00:30, 11.79
2015/10/05 01:00, 11.79
2015/10/05 01:30, 11.79
2015/10/05 02:00, 11.79
2015/10/05 02:30, 11.79
2015/10/05 03:00, 11.79
2015/10/05 03:30, 11.78
2015/10/05 04:00, 11.78
2015/10/05 04:30, 11.78
2015/10/05 05:00, 11.78
2015/10/05 05:30, 11.78
2015/10/05 06:00, 11.78
2015/10/05 06:30, 11.78
2015/10/05 07:00, 11.77
2015/10/05 07:30, 11.77
2015/10/05 08:00, 11.77
2015/10/05 08:30, 11.76
2015/10/05 09:00, 11.70
2015/10/05 09:30, 11.61
2015/10/05 10:00, 11.61
2015/10/05 10:30, 11.60
2015/10/05 11:00, 11.59
2015/10/05 11:30, 11.58
2015/10/05 12:00, 11.59
2015/10/05 12:30, 11.60
2015/10/05 13:00, 11.75
2015/10/05 13:30, 11.79
2015/10/05 14:00, 11.92
2015/10/05 14:30, 12.08
2015/10/05 15:00, 12.24
2015/10/05 15:30, 12.25
2015/10/05 16:00, 12.28
2015/10/05 16:30, 12.22
2015/10/05 17:00, 12.14
2015/10/05 17:30, 12.12
2015/10/05 18:00, 12.25
2015/10/05 18:30, 12.40
2015/10/05 19:00, 12.25
2015/10/05 19:30, 12.22
2015/10/05 20:00, 12.43
2015/10/05 20:30, 12.44
2015/10/05 21:00, 12.46
2015/10/05 21:30, 12.42
2015/10/05 22:00, 12.70
2015/10/05 22:30, 12.56
2015/10/05 23:00, 12.36
2015/10/05 23:30, 12.14
2015/10/06 00:00, 12.09
2015/10/06 00:30, 12.05
2015/10/06 01:00, 12.03
2015/10/06 01:30, 12.01
2015/10/06 02:00, 11.99
2015/10/06 02:30, 11.98
2015/10/06 03:00, 11.95
2015/10/06 03:30, 11.93
2015/10/06 04:00, 11.91
2015/10/06 04:30, 11.90
2015/10/06 05:00, 11.89
2015/10/06 05:30, 11.88
2015/10/06 06:00, 11.86
2015/10/06 06:30, 11.85
2015/10/06 07:00, 11.84
2015/10/06 07:30, 11.82
2015/10/06 08:00, 11.83
2015/10/06 08:30, 11.81
2015/10/06 09:00, 11.81
2015/10/06 09:30, 11.86
2015/10/06 10:00, 11.82
2015/10/06 10:30, 11.80
2015/10/06 11:00, 11.78
2015/10/06 11:30, 11.79
2015/10/06 12:00, 11.78
2015/10/06 12:30, 11.78
2015/10/06 13:00, 11.80
2015/10/06 13:30, 11.83
2015/10/06 14:00, 11.82
2015/10/06 14:30, 11.84
2015/10/06 15:00, 11.93
2015/10/06 15:30, 12.17
2015/10/06 16:00, 12.73
2015/10/06 16:30, 12.87
2015/10/06 17:00, 13.06
2015/10/06 17:30, 13.21
2015/10/06 18:00, 13.39
2015/10/06 18:30, 13.58
2015/10/06 19:00, 13.55
2015/10/06 19:30, 13.46
2015/10/06 20:00, 13.37
2015/10/06 20:30, 13.48
2015/10/06 21:00, 13.15
2015/10/06 21:30, 12.72
2015/10/06 22:00, 12.49
2015/10/06 22:30, 12.36
2015/10/06 23:00, 12.27
2015/10/06 23:30, 12.23
2015/10/07 00:00, 12.23
2015/10/07 00:30, 12.21
2015/10/07 01:00, 12.19
2015/10/07 01:30, 12.14
2015/10/07 02:00, 12.09
2015/10/07 02:30, 12.08
2015/10/07 03:00, 12.06
2015/10/07 03:30, 12.03
2015/10/07 04:00, 12.02